This is the latest recevied weather packets stored in our database for station/object KD9JB-1. If no packets are shown the sender has not sent any weather packets the latest 10 day(s).
| Time | Temp. | Humidity | Pressure | Rain* | Wind** | Luminosity | Snow |
|---|---|---|---|---|---|---|---|
| 1778203290 | 12.78° C | 55% | 1015.2 hPa | 0 mm | - | - | - |
| 1778202990 | 13.33° C | 51% | 1015.2 hPa | 0 mm | - | - | - |
| 1778202690 | 13.33° C | 52% | 1015.1 hPa | 0 mm | - | - | - |
| 1778202390 | 13.89° C | 50% | 1015.1 hPa | 0 mm | - | - | - |
| 1778202090 | 13.89° C | 50% | 1015 hPa | 0 mm | - | - | - |
| 1778201790 | 13.89° C | 51% | 1014.9 hPa | 0 mm | - | - | - |
| 1778201490 | 13.89° C | 51% | 1015 hPa | 0 mm | - | - | - |
| 1778201190 | 13.89° C | 48% | 1015 hPa | 0 mm | - | - | - |
| 1778200890 | 14.44° C | 51% | 1015 hPa | 0 mm | - | - | - |
| 1778200590 | 14.44° C | 46% | 1015 hPa | 0 mm | - | - | - |
| 1778200290 | 15° C | 46% | 1014.9 hPa | 0 mm | - | - | - |
| 1778199990 | 15° C | 45% | 1014.9 hPa | 0 mm | - | - | - |
| 1778199690 | 15.56° C | 43% | 1014.9 hPa | 0 mm | - | - | - |
| 1778199390 | 15.56° C | 43% | 1014.8 hPa | 0 mm | - | - | - |
| 1778199090 | 16.11° C | 40% | 1014.8 hPa | 0 mm | - | - | - |
| 1778198790 | 16.11° C | 40% | 1014.9 hPa | 0 mm | - | - | - |
| 1778198490 | 16.11° C | 37% | 1014.9 hPa | 0 mm | - | - | - |
| 1778198190 | 16.67° C | 37% | 1014.9 hPa | 0 mm | - | - | - |
| 1778197890 | 16.67° C | 37% | 1014.8 hPa | 0 mm | - | - | - |
| 1778197590 | 16.67° C | 36% | 1014.8 hPa | 0 mm | - | - | - |
| 1778197290 | 16.67° C | 36% | 1014.8 hPa | 0 mm | - | - | - |
| 1778196990 | 17.22° C | 37% | 1014.8 hPa | 0 mm | - | - | - |
| 1778196690 | 17.22° C | 36% | 1014.8 hPa | 0 mm | - | - | - |
| 1778196390 | 17.22° C | 36% | 1014.9 hPa | 0 mm | - | - | - |
| 1778196090 | 17.78° C | 35% | 1014.9 hPa | 0 mm | - | - | - |
* Rain latest hour (hover to see other rain measurements)
** Current wind speed in m/s (hover to see current wind gust speed)